Regional Weather Roundup
Issued by NWS

Home | Current Version | Previous Version | Text Only | Print | Product List | Glossary Off
Versions: 1 2 3 4 5 6 7 8 9 10 11 12 13 14 15 16 17 18 19 20 21 22 23 24 25 26 27 28 29 30 31 32 33 34 35 36 37 38 39 40 41 42 43 44 45 46 47 48 49 50

633
ASUS45 KBOI 261110
RWRID

IDAHO REGIONAL WEATHER ROUNDUP
NATIONAL WEATHER SERVICE BOISE ID
500 AM MDT SUN MAR 26 2017

NOTE: "FAIR" INDICATES FEW OR NO CLOUDS BELOW 12000 FEET
WITH NO SIGNIFICANT WEATHER AND/OR OBSTRUCTIONS TO VISIBILITY

IDZ012-014-261200-
SOUTHWEST IDAHO


CITY           SKY/WX    TMP DP  RH WIND       PRES   REMARKS
BOISE          CLEAR     40  28  62 SE7       29.96F
CALDWELL       CLEAR     35  30  82 SE6       29.97F WCI  30
MOUNTAIN HOME  CLEAR     32  32 100 E8        29.97F WCI  24
$$

IDZ016-017-261200-
SOUTHCENTRAL IDAHO


CITY           SKY/WX    TMP DP  RH WIND       PRES   REMARKS
BURLEY         CLEAR     34  27  75 SW12      29.98F WCI  25
JEROME         CLEAR     36  29  75 SE5       29.99F WCI  32
TWIN FALLS     CLEAR     33  27  78 S10       29.98F WCI  25
$$

IDZ019>023-261200-
SOUTHEAST IDAHO


CITY           SKY/WX    TMP DP  RH WIND       PRES   REMARKS
IDAHO FALLS    CLEAR     31  27  85 SW10      29.98R WCI  22
POCATELLO      CLEAR     30  26  85 CALM      29.99F
REXBURG        MOCLDY    33  25  72 SW5       29.98R WCI  29
$$

IDZ006-010-011-018-031-032-261200-
CENTRAL IDAHO MOUNTAINS


CITY           SKY/WX    TMP DP  RH WIND       PRES   REMARKS
MCCALL         CLOUDY    25  22  88 CALM      29.95F
HAILEY         PTCLDY    30  21  69 W8        30.00S WCI  23
STANLEY          N/A     17  14  88 CALM      30.00F
SALMON         CLEAR     30  21  69 CALM      29.98S
CHALLIS        CLEAR     29  20  69 CALM      29.98F
$$

IDZ002-004-006-007-026-261200-
NORTHERN IDAHO


CITY           SKY/WX    TMP DP  RH WIND       PRES   REMARKS
LEWISTON       CLOUDY    38  34  85 SE5       29.99F WCI  34
LOWELL           N/A     39  35  86 N3        30.06S
COEUR D`ALENE  CLEAR     30  27  88 CALM      30.00S
MULLAN PASS    CLOUDY    23  23 100 S3        29.91F
$$




USA.gov is the U.S. government's official web portal to all federal, state and local government web resources and services.